SCR744 EDSB-EGGD

Flight info

Callsign SCR744
Flight time 1h 7m
Altitude 39000
Route STR6P STR R11 OBORN V17 GTQ N852 SUTAL/N0427F240 N852 DIK M624 BUB L608 COA L179 KEGIT L608 SASKI L179 ICTAM
Aircraft B737/M-SDE2E3FGHIRWXY/LB1

Departure

Time 2026-05-06 10:10
Airport Karlsruhe Baden-Baden Airport (EDSB)

Arrival

Time 2026-05-06 11:17
Airport Bristol Airport (EGGD)
Time Latitude Longitude Altitude Speed Heading
2026-05-06 09:36 48.78018 8.08753 407 ft 0 kts 104°
2026-05-06 10:03 48.78021 8.08766 409 ft 7 kts 58°
2026-05-06 10:03 48.78047 8.08789 415 ft 9 kts 28°
2026-05-06 10:03 48.78076 8.08807 415 ft 9 kts 18°
2026-05-06 10:04 48.78108 8.08816 415 ft 9 kts
2026-05-06 10:04 48.78139 8.08817 415 ft 9 kts
2026-05-06 10:04 48.78170 8.08820 415 ft 9 kts 11°
2026-05-06 10:04 48.78200 8.08838 407 ft 10 kts 18°
2026-05-06 10:05 48.78234 8.08826 407 ft 11 kts 320°
2026-05-06 10:05 48.78258 8.08778 415 ft 12 kts 303°
2026-05-06 10:05 48.78285 8.08719 413 ft 15 kts 320°
2026-05-06 10:05 48.78339 8.08718 415 ft 18 kts 29°
2026-05-06 10:06 48.78395 8.08773 415 ft 21 kts 30°
2026-05-06 10:06 48.78461 8.08833 410 ft 23 kts 32°
2026-05-06 10:06 48.78534 8.08903 411 ft 26 kts 32°
2026-05-06 10:06 48.78615 8.08979 410 ft 29 kts 32°
2026-05-06 10:07 48.78705 8.09058 411 ft 31 kts 27°
2026-05-06 10:07 48.78801 8.09145 413 ft 33 kts 35°
2026-05-06 10:07 48.78894 8.09239 413 ft 32 kts 30°
2026-05-06 10:07 48.78994 8.09292 414 ft 26 kts 342°
2026-05-06 10:08 48.79043 8.09191 411 ft 24 kts 300°
2026-05-06 10:08 48.79036 8.09085 412 ft 21 kts 220°
2026-05-06 10:08 48.79025 8.09074 416 ft 0 kts 211°
2026-05-06 10:08 48.79023 8.09072 410 ft 5 kts 211°
2026-05-06 10:09 48.78955 8.09008 417 ft 44 kts 211°
2026-05-06 10:09 48.78764 8.08830 410 ft 84 kts 211°
2026-05-06 10:09 48.78406 8.08493 410 ft 126 kts 212°
2026-05-06 10:09 48.77486 8.07608 508 ft 178 kts 213°
2026-05-06 10:10 48.76386 8.06519 1139 ft 200 kts 215°
2026-05-06 10:10 48.75218 8.05324 2006 ft 207 kts 215°
2026-05-06 10:10 48.73978 8.04019 2637 ft 227 kts 215°
2026-05-06 10:10 48.72586 8.02576 3082 ft 255 kts 215°
2026-05-06 10:11 48.71111 8.01056 4093 ft 257 kts 214°
2026-05-06 10:11 48.69615 7.99522 5147 ft 258 kts 215°
2026-05-06 10:11 48.68119 7.97990 6163 ft 262 kts 215°
2026-05-06 10:11 48.66617 7.96456 7045 ft 266 kts 214°
2026-05-06 10:12 48.65085 7.94892 8062 ft 267 kts 214°
2026-05-06 10:12 48.63526 7.93305 8998 ft 273 kts 214°
2026-05-06 10:12 48.61944 7.91694 9975 ft 274 kts 214°
2026-05-06 10:12 48.60320 7.90041 10506 ft 293 kts 214°
2026-05-06 10:13 48.58546 7.88238 10712 ft 320 kts 213°
2026-05-06 10:13 48.56640 7.86303 11122 ft 337 kts 213°
2026-05-06 10:13 48.54670 7.84304 11872 ft 344 kts 213°
2026-05-06 10:13 48.52699 7.82305 12748 ft 347 kts 213°
2026-05-06 10:14 48.50682 7.80262 13610 ft 351 kts 212°
2026-05-06 10:14 48.48641 7.78201 14375 ft 354 kts 213°
2026-05-06 10:14 48.46586 7.76109 15125 ft 359 kts 216°
2026-05-06 10:14 48.44893 7.73314 15791 ft 369 kts 240°
2026-05-06 10:15 48.44180 7.69575 16549 ft 379 kts 266°
2026-05-06 10:15 48.44586 7.65677 17290 ft 389 kts 290°
2026-05-06 10:15 48.46046 7.62209 18026 ft 397 kts 310°
2026-05-06 10:15 48.47883 7.59063 18669 ft 402 kts 309°
2026-05-06 10:16 48.49563 7.55679 19251 ft 406 kts 295°
2026-05-06 10:16 48.50365 7.51635 19878 ft 403 kts 271°
2026-05-06 10:16 48.50101 7.47474 20599 ft 398 kts 254°
2026-05-06 10:16 48.49388 7.43433 21292 ft 400 kts 251°
2026-05-06 10:17 48.48646 7.39360 21897 ft 405 kts 252°
2026-05-06 10:17 48.47993 7.35199 22515 ft 410 kts 255°
2026-05-06 10:17 48.47459 7.31071 23482 ft 403 kts 256°
2026-05-06 10:17 48.46968 7.26901 24016 ft 407 kts 256°
2026-05-06 10:18 48.46483 7.22668 24402 ft 413 kts 258°
2026-05-06 10:18 48.46237 7.18318 24825 ft 422 kts 267°
2026-05-06 10:18 48.46429 7.13862 25325 ft 427 kts 271°
2026-05-06 10:18 48.46744 7.09386 25741 ft 433 kts 277°
2026-05-06 10:19 48.47790 7.05055 26130 ft 448 kts 297°
2026-05-06 10:19 48.49739 7.01338 26583 ft 458 kts 314°
2026-05-06 10:19 48.52340 6.98611 26988 ft 467 kts 333°
2026-05-06 10:19 48.55362 6.96750 27467 ft 470 kts 338°
2026-05-06 10:20 48.58445 6.95059 27983 ft 471 kts 339°
2026-05-06 10:20 48.61531 6.93386 28571 ft 470 kts 338°
2026-05-06 10:20 48.64602 6.91674 29104 ft 470 kts 338°
2026-05-06 10:20 48.67665 6.89910 29578 ft 471 kts 337°
2026-05-06 10:21 48.70733 6.88112 30029 ft 472 kts 337°
2026-05-06 10:21 48.73750 6.86336 30492 ft 469 kts 337°
2026-05-06 10:21 48.76784 6.84547 31040 ft 465 kts 337°
2026-05-06 10:21 48.79788 6.82771 31560 ft 462 kts 337°
2026-05-06 10:22 48.82784 6.80998 32023 ft 460 kts 336°
2026-05-06 10:22 48.85759 6.79235 32435 ft 459 kts 336°
2026-05-06 10:22 48.88737 6.77468 32868 ft 458 kts 336°
2026-05-06 10:22 48.91712 6.75701 33163 ft 459 kts 336°
2026-05-06 10:23 48.94690 6.73930 33479 ft 460 kts 336°
2026-05-06 10:23 48.97663 6.72161 33896 ft 457 kts 336°
2026-05-06 10:23 49.00610 6.70363 34269 ft 454 kts 335°
2026-05-06 10:23 49.03513 6.68475 34557 ft 453 kts 334°
2026-05-06 10:24 49.06375 6.66566 34801 ft 454 kts 334°
2026-05-06 10:24 49.09269 6.64629 35069 ft 453 kts 334°
2026-05-06 10:24 49.12158 6.62706 35387 ft 452 kts 334°
2026-05-06 10:24 49.15042 6.60798 35657 ft 451 kts 334°
2026-05-06 10:25 49.17926 6.58895 35884 ft 451 kts 334°
2026-05-06 10:25 49.20810 6.56992 36145 ft 451 kts 334°
2026-05-06 10:25 49.23691 6.55084 36424 ft 450 kts 334°
2026-05-06 10:25 49.26559 6.53175 36674 ft 449 kts 334°
2026-05-06 10:26 49.29426 6.51262 36892 ft 449 kts 334°
2026-05-06 10:26 49.32286 6.49353 37126 ft 448 kts 334°
2026-05-06 10:26 49.35148 6.47441 37350 ft 448 kts 334°
2026-05-06 10:26 49.37961 6.45538 37587 ft 446 kts 333°
2026-05-06 10:27 49.40768 6.43497 37795 ft 446 kts 332°
2026-05-06 10:27 49.43568 6.41445 37978 ft 446 kts 332°
2026-05-06 10:27 49.46385 6.39415 38097 ft 448 kts 333°
2026-05-06 10:27 49.49242 6.37461 38186 ft 451 kts 335°
2026-05-06 10:28 49.52406 6.35434 38297 ft 453 kts 335°
2026-05-06 10:28 49.59322 6.31052 38547 ft 455 kts 335°
2026-05-06 10:28 49.67520 6.25660 38797 ft 458 kts 334°
2026-05-06 10:29 49.82351 6.15554 38831 ft 470 kts 334°
2026-05-06 10:29 49.86936 6.11917 38792 ft 472 kts 322°
2026-05-06 10:29 49.89409 6.08616 38806 ft 465 kts 312°
2026-05-06 10:30 49.93871 6.01523 38793 ft 459 kts 313°
2026-05-06 10:30 49.98457 5.94659 38798 ft 455 kts 314°
2026-05-06 10:31 50.03030 5.87855 38803 ft 453 kts 314°
2026-05-06 10:31 50.07949 5.80483 38831 ft 453 kts 314°
2026-05-06 10:32 50.17117 5.66673 38844 ft 463 kts 314°
2026-05-06 10:32 50.26456 5.52530 38827 ft 469 kts 313°
2026-05-06 10:33 50.35758 5.38364 38824 ft 461 kts 313°
2026-05-06 10:33 50.44216 5.25408 38829 ft 452 kts 313°
2026-05-06 10:34 50.48639 5.18376 38838 ft 453 kts 305°
2026-05-06 10:34 50.53619 5.06582 38848 ft 460 kts 300°
2026-05-06 10:35 50.67664 4.72085 38860 ft 470 kts 300°
2026-05-06 10:35 50.81537 4.38027 38837 ft 456 kts 300°
2026-05-06 10:36 50.94926 4.04668 38841 ft 442 kts 300°
2026-05-06 10:36 51.08088 3.71448 38937 ft 450 kts 300°
2026-05-06 10:37 51.21590 3.36932 38922 ft 466 kts 300°
2026-05-06 10:37 51.29093 3.17557 38907 ft 456 kts 300°
2026-05-06 10:38 51.32370 3.09046 38911 ft 444 kts 299°
2026-05-06 10:38 51.35577 3.00695 38903 ft 442 kts 299°
2026-05-06 10:39 51.38782 2.92303 38923 ft 444 kts 299°
2026-05-06 10:39 51.42018 2.83806 38932 ft 450 kts 299°
2026-05-06 10:40 51.45286 2.75205 38919 ft 452 kts 299°
2026-05-06 10:40 51.48559 2.66565 38922 ft 454 kts 299°
2026-05-06 10:41 51.51821 2.57919 38923 ft 455 kts 300°
2026-05-06 10:41 51.54488 2.48790 38933 ft 449 kts 284°
2026-05-06 10:42 51.55476 2.38958 38945 ft 444 kts 273°
2026-05-06 10:42 51.55890 2.29056 38937 ft 443 kts 272°
2026-05-06 10:43 51.56336 2.19185 38938 ft 442 kts 273°
2026-05-06 10:44 51.57050 2.04477 38941 ft 441 kts 273°
2026-05-06 10:44 51.57525 1.94641 38947 ft 440 kts 273°
2026-05-06 10:45 51.58383 1.76572 38952 ft 440 kts 273°
2026-05-06 10:45 51.60120 1.37335 38959 ft 439 kts 272°
2026-05-06 10:46 51.60861 1.19021 38964 ft 439 kts 272°
2026-05-06 10:46 51.61234 1.09246 38961 ft 439 kts 272°
2026-05-06 10:47 51.61544 1.01019 38963 ft 440 kts 272°
2026-05-06 10:47 51.61907 0.91240 38976 ft 440 kts 272°
2026-05-06 10:48 51.62316 0.81404 38967 ft 440 kts 273°
2026-05-06 10:48 51.62715 0.71569 38970 ft 440 kts 272°
2026-05-06 10:49 51.63001 0.61708 38965 ft 440 kts 272°
2026-05-06 10:49 51.63365 0.51939 38971 ft 440 kts 272°
2026-05-06 10:50 51.63715 0.42086 38970 ft 440 kts 272°
2026-05-06 10:50 51.64043 0.32260 38986 ft 439 kts 272°
2026-05-06 10:51 51.64367 0.22437 38986 ft 439 kts 272°
2026-05-06 10:51 51.64412 0.12626 38979 ft 437 kts 261°
2026-05-06 10:52 51.63353 0.03056 38988 ft 437 kts 258°
2026-05-06 10:52 51.62258 -0.06597 39014 ft 437 kts 259°
2026-05-06 10:53 51.61257 -0.16311 38236 ft 444 kts 262°
2026-05-06 10:53 51.60848 -0.21226 37659 ft 442 kts 262°
2026-05-06 10:53 51.60464 -0.26117 37030 ft 440 kts 262°
2026-05-06 10:53 51.60082 -0.30999 36394 ft 439 kts 262°
2026-05-06 10:54 51.59695 -0.35849 35746 ft 438 kts 262°
2026-05-06 10:54 51.59302 -0.40663 35053 ft 439 kts 262°
2026-05-06 10:54 51.58896 -0.45538 34355 ft 440 kts 262°
2026-05-06 10:54 51.58483 -0.50441 33561 ft 441 kts 262°
2026-05-06 10:55 51.58065 -0.55345 32717 ft 443 kts 262°
2026-05-06 10:55 51.57645 -0.60249 31930 ft 443 kts 262°
2026-05-06 10:55 51.57221 -0.65178 31115 ft 444 kts 262°
2026-05-06 10:55 51.56800 -0.70044 30283 ft 445 kts 262°
2026-05-06 10:56 51.56371 -0.74979 29303 ft 447 kts 262°
2026-05-06 10:56 51.55939 -0.79930 28335 ft 447 kts 262°
2026-05-06 10:56 51.55505 -0.84881 27341 ft 447 kts 262°
2026-05-06 10:56 51.55068 -0.89836 26325 ft 448 kts 262°
2026-05-06 10:57 51.54626 -0.94827 25302 ft 451 kts 262°
2026-05-06 10:57 51.54185 -0.99778 24606 ft 444 kts 262°
2026-05-06 10:57 51.53753 -1.04617 23863 ft 440 kts 262°
2026-05-06 10:57 51.53319 -1.09452 23045 ft 436 kts 262°
2026-05-06 10:58 51.52891 -1.14252 22232 ft 431 kts 263°
2026-05-06 10:58 51.52900 -1.19003 21706 ft 421 kts 279°
2026-05-06 10:58 51.53462 -1.23568 21273 ft 414 kts 281°
2026-05-06 10:58 51.54048 -1.28139 20835 ft 424 kts 281°
2026-05-06 10:59 51.54636 -1.32817 20378 ft 425 kts 281°
2026-05-06 10:59 51.55196 -1.37416 19929 ft 424 kts 281°
2026-05-06 10:59 51.55748 -1.42060 19494 ft 423 kts 281°
2026-05-06 10:59 51.56290 -1.46680 19046 ft 418 kts 281°
2026-05-06 11:00 51.56822 -1.51256 18621 ft 413 kts 281°
2026-05-06 11:00 51.57345 -1.55770 18173 ft 408 kts 281°
2026-05-06 11:00 51.57864 -1.60248 17708 ft 405 kts 281°
2026-05-06 11:00 51.58375 -1.64684 17263 ft 402 kts 281°
2026-05-06 11:01 51.58804 -1.69123 16847 ft 400 kts 277°
2026-05-06 11:01 51.59108 -1.73566 16430 ft 399 kts 276°
2026-05-06 11:01 51.59398 -1.77999 16010 ft 398 kts 277°
2026-05-06 11:01 51.59699 -1.82364 15600 ft 395 kts 277°
2026-05-06 11:02 51.59916 -1.86714 15162 ft 385 kts 268°
2026-05-06 11:02 51.59405 -1.90871 14791 ft 376 kts 251°
2026-05-06 11:02 51.58232 -1.94575 14418 ft 369 kts 239°
2026-05-06 11:02 51.56833 -1.97991 14031 ft 362 kts 238°
2026-05-06 11:03 51.55450 -2.01331 13618 ft 355 kts 238°
2026-05-06 11:03 51.54118 -2.04611 13219 ft 347 kts 238°
2026-05-06 11:03 51.52828 -2.07843 12858 ft 339 kts 241°
2026-05-06 11:03 51.51849 -2.11231 12529 ft 329 kts 251°
2026-05-06 11:04 51.51092 -2.14614 12181 ft 323 kts 252°
2026-05-06 11:04 51.50373 -2.17972 11833 ft 313 kts 253°
2026-05-06 11:04 51.49672 -2.21226 11501 ft 303 kts 252°
2026-05-06 11:04 51.48985 -2.24365 11193 ft 294 kts 252°
2026-05-06 11:05 51.48301 -2.27444 10900 ft 289 kts 253°
2026-05-06 11:05 51.47635 -2.30417 10614 ft 286 kts 252°
2026-05-06 11:05 51.46958 -2.33420 10323 ft 285 kts 252°
2026-05-06 11:05 51.46281 -2.36405 10000 ft 281 kts 252°
2026-05-06 11:06 51.45615 -2.39323 9685 ft 275 kts 252°
2026-05-06 11:06 51.44963 -2.42173 9368 ft 269 kts 252°
2026-05-06 11:06 51.44324 -2.44959 9095 ft 265 kts 252°
2026-05-06 11:06 51.43690 -2.47727 8819 ft 265 kts 252°
2026-05-06 11:07 51.43054 -2.50496 8546 ft 265 kts 251°
2026-05-06 11:07 51.42426 -2.53228 8264 ft 265 kts 251°
2026-05-06 11:07 51.41788 -2.55999 7990 ft 262 kts 252°
2026-05-06 11:07 51.41163 -2.58708 7707 ft 256 kts 251°
2026-05-06 11:08 51.40553 -2.61352 7454 ft 250 kts 252°
2026-05-06 11:08 51.39954 -2.63939 7187 ft 245 kts 252°
2026-05-06 11:08 51.39365 -2.66480 6921 ft 240 kts 251°
2026-05-06 11:08 51.38790 -2.68956 6676 ft 234 kts 251°
2026-05-06 11:09 51.38254 -2.71381 6426 ft 228 kts 259°
2026-05-06 11:09 51.38361 -2.73819 6171 ft 217 kts 287°
2026-05-06 11:09 51.38767 -2.76093 5971 ft 208 kts 286°
2026-05-06 11:09 51.39137 -2.78288 5746 ft 200 kts 286°
2026-05-06 11:10 51.39481 -2.80374 5507 ft 193 kts 285°
2026-05-06 11:10 51.39812 -2.82415 5323 ft 185 kts 286°
2026-05-06 11:10 51.40127 -2.84382 5111 ft 181 kts 286°
2026-05-06 11:10 51.40434 -2.86325 4941 ft 179 kts 287°
2026-05-06 11:11 51.40737 -2.88251 4750 ft 179 kts 287°
2026-05-06 11:11 51.41037 -2.90176 4550 ft 178 kts 287°
2026-05-06 11:11 51.41332 -2.92096 4379 ft 177 kts 288°
2026-05-06 11:11 51.41644 -2.94064 4274 ft 199 kts 287°
2026-05-06 11:12 51.41652 -2.96445 4306 ft 229 kts 253°
2026-05-06 11:12 51.40660 -2.98359 4184 ft 226 kts 207°
2026-05-06 11:12 51.39189 -2.98714 4062 ft 207 kts 164°
2026-05-06 11:12 51.38049 -2.97652 3858 ft 186 kts 123°
2026-05-06 11:13 51.37681 -2.95765 3541 ft 173 kts 91°
2026-05-06 11:13 51.37607 -2.93860 3236 ft 167 kts 92°
2026-05-06 11:13 51.37554 -2.92092 3009 ft 154 kts 89°
2026-05-06 11:13 51.37575 -2.90446 2781 ft 142 kts 85°
2026-05-06 11:14 51.37623 -2.88935 2642 ft 133 kts 85°
2026-05-06 11:14 51.37675 -2.87468 2458 ft 135 kts 86°
2026-05-06 11:14 51.37739 -2.85964 2249 ft 134 kts 82°
2026-05-06 11:14 51.37796 -2.84463 2071 ft 136 kts 84°
2026-05-06 11:15 51.37845 -2.82940 1903 ft 136 kts 84°
2026-05-06 11:15 51.37904 -2.81400 1707 ft 139 kts 83°
2026-05-06 11:15 51.37962 -2.79874 1482 ft 135 kts 83°
2026-05-06 11:15 51.38019 -2.78356 1314 ft 139 kts 84°
2026-05-06 11:16 51.38079 -2.76791 1092 ft 141 kts 84°
2026-05-06 11:16 51.38136 -2.75263 877 ft 132 kts 82°
2026-05-06 11:16 51.38189 -2.73848 696 ft 125 kts 84°
2026-05-06 11:16 51.38241 -2.72550 618 ft 105 kts 83°
2026-05-06 11:17 51.38269 -2.71868 621 ft 45 kts 86°
2026-05-06 11:17 51.38286 -2.71518 613 ft 17 kts 79°
2026-05-06 11:17 51.38360 -2.71497 624 ft 13 kts 330°
2026-05-06 11:17 51.38432 -2.71574 612 ft 12 kts 300°
2026-05-06 11:18 51.38431 -2.71709 613 ft 12 kts 270°
2026-05-06 11:18 51.38443 -2.71838 622 ft 12 kts 310°
2026-05-06 11:18 51.38521 -2.71856 613 ft 10 kts 343°
2026-05-06 11:18 51.38528 -2.71923 613 ft 6 kts 258°
2026-05-06 11:19 51.38526 -2.71951 619 ft 0 kts 266°